Location: Arborea
(39.7744°N, 8.5819°E)
Time: 00:56:38
(UTC+00:00)

NOSS 3-1 (A) - Pass Details

Date: 24 October 2021
Orbit: 721 x 1491 km, 63.4° (Epoch: 22 November)

Event Time Altitude Azimuth Distance (km) Brightness Sun altitude
Rises 17:46:09 0° 211° (SSW) 3,146 6.7 -14.6°
Reaches altitude 10° 17:48:23 10° 211° (SSW) 2,264 5.9 -15.0°
Maximum altitude 17:53:31 87° 125° (SE) 821 3.1 -16.0°
Drops below altitude 10° 17:59:30 10° 34° (NE) 2,628 5.4 -17.1°
Enters shadow 17:59:58 - 35° (NE) 2,805 5.6 -17.2°
